Simultaneous Nadir Overpasses (SNOs) Predictions

Prediction of SNOs between METOP-B and NOAA-19 Satellite Orbit:

Table of predicted SNOs for the next 14.0 days since TLE Epoch: 8/11/2018
Index Date (METOP-B) Time (METOP-B) Lat,Lon (METOP-B) SZA (METOP-B ) Date (NOAA-19) Time (NOAA-19) Lat,Lon (NOAA-19) SZA (NOAA-19 ) Distance(km) Time Diff (sec)
1 08/11/2018 03:10:40 78.55, 142.82 63.34 08/11/2018 03:11:31 78.54, 142.67 63.33 3.46 51
2 08/11/2018 04:01:22 -78.51, -50.05 116.70 08/11/2018 04:02:25 -78.52, -49.91 116.68 3.11 63
3 08/21/2018 19:06:22 -78.64, 84.44 113.16 08/21/2018 19:05:08 -78.65, 83.86 113.19 12.59 74
4 08/21/2018 19:57:03 78.60,-108.47 66.81 08/21/2018 19:56:12 78.60,-108.54 66.79 1.60 51
5 08/21/2018 20:47:45 -78.59, 58.76 113.21 08/21/2018 20:47:07 -78.58, 58.87 113.22 2.61 38
6 08/21/2018 21:38:25 78.59,-133.92 66.81 08/21/2018 21:38:13 78.60,-134.02 66.81 2.40 12
7 08/21/2018 22:29:07 -78.57, 33.30 113.21 08/21/2018 22:29:08 -78.58, 33.39 113.20 1.96 1
8 08/21/2018 23:19:47 78.57,-159.38 66.81 08/21/2018 23:20:13 78.56,-159.26 66.81 2.73 26
9 08/22/2018 00:10:29 -78.55, 7.85 113.20 08/22/2018 00:11:09 -78.57, 7.91 113.17 2.75 40
10 08/22/2018 01:01:09 78.55, 175.17 66.81 08/22/2018 01:02:14 78.55, 175.26 66.83 2.04 65




NCC Satellite Simultaneous Nadir Overpasses (SNOs) Prediction Service
